Regional Weather Roundup
Issued by NWS Wakefield, VA

Home | Current Version | Previous Version | Graphics & Text | Print | Product List | Glossary On
Versions: 1 2 3 4 5 6 7 8 9 10 11 12 13 14 15 16 17 18 19 20 21 22 23 24 25 26 27 28 29 30 31 32 33 34 35 36 37 38 39 40 41 42 43 44 45 46 47 48 49 50
000
ASUS41 KAKQ 022015
RWRAKQ

REGIONAL WEATHER ROUNDUP
NATIONAL WEATHER SERVICE WAKEFIELD VA
400 PM EDT SUN AUG 02 2015

Note: "fair" indicates few or no clouds below 12,000 feet with no
significant weather and/or obstructions to visibility. * = Denotes
station may not report precipitation (e.g., rain,snow,etc.),
thunder or fog.

VAZ042-051-052>054-056-022100-
NORTHERN VIRGINIA

CITY           SKY/WX    TMP DP  RH WIND       PRES   REMARKS
WASH NATIONAL  PTSUNNY   90  56  31 SW13      29.93F
DULLES         PTSUNNY   87  56  34 W6        29.94F
FORT BELVOIR   PTSUNNY   86  59  40 S6        29.94F
QUANTICO       NOT AVBL
FREDERICKSBRG* CLOUDY    87  60  39 S5        29.94F
STAFFORD*      CLOUDY    83  60  46 CALM      30.00S
WARRENTON      PTSUNNY   86  61  42 SW6       29.95F
CULPEPER*      PTSUNNY   82  60  47 S6        29.96F
MANASSAS*      SUNNY     86  54  32 VRB5      29.94F
LEESBURG*      SUNNY     90  59  35 SW9       29.96F
WINCHESTER     PTSUNNY   86  55  35 S9        29.95F
FRONT ROYAL*   FAIR      86  59  39 S6        29.95F
LURAY*         FAIR      88  55  33 SW7       29.97F
$$

VAZ048-049-060>072-079>083-022100-
CENTRAL AND SOUTH CENTRAL VIRGINIA

CITY           SKY/WX    TMP DP  RH WIND       PRES   REMARKS
RICHMOND       PTSUNNY   88  60  38 E6        29.94F
CHESTERFIELD*  FAIR      90  54  29 NW6       29.96S
PETERSBURG*    PTSUNNY   89  66  46 W6        29.95S
HANOVER        PTSUNNY   85  63  47 CALM      29.97S
TAPPAHANNOCK*  PTSUNNY   86  56  35 CALM      29.96R
QUINTON*       FAIR      86  64  47 CALM      29.94S
CHARLOTTSVILLE CLOUDY    81  60  48 SW7       29.98F
GORDONSVILLE*  FAIR      81  63  54 SW7       29.97S
ORANGE*        CLOUDY    82  61  47 S5        29.99S
LOUISA*        CLOUDY    82  63  51 SW3       29.97S
BUMPASS*       FAIR      83  61  47 NW5       29.97S
FARMVILLE*     PTSUNNY   87  53  32 N3        29.96S
CREWE*         FAIR     N/A N/A N/A N6        29.96S
FORT PICKETT*  FAIR      86  58  37 CALM      29.96S
CHASE CITY*    FAIR      87  62  42 NE5       29.96F
CLARKSVILLE*   FAIR      86  59  39 CALM      29.96F
SOUTH HILL*    PTSUNNY   86  60  42 CALM      30.01S
LAWRENCEVILLE* FAIR      86  63  45 E3        29.95S
EMPORIA*       MOSUNNY   86  61  42 NW5       29.95F
$$

VAZ088>098-022100-
SOUTHEAST VIRGINIA

CITY           SKY/WX    TMP DP  RH WIND       PRES   REMARKS
NORFOLK        PTSUNNY   84  73  69 NE7       29.92F
VIRGINIA BEACH PTSUNNY   85  73  67 NE12      29.91F
NORFOLK NAVAL  CLOUDY    84  69  60 NE10      29.94F
WEST POINT*    PTSUNNY   87  65  48 SE5       29.95S
SALUDA*        FAIR      83  66  55 E7        29.94S
NEWPORT NEWS   CLOUDY    86  65  49 N6        29.93F
LANGLEY AFB    CLOUDY    84  70  62 NE8       29.93F
FORT EUSTIS    CLOUDY    86  61  42 NE7       29.91F
WILLIAMSBURG*  CLOUDY    84  73  70 CALM      29.94F
HR EXEC AP*    MOCLDY    86  72  62 NE5       29.94F
FRANKLIN*      PTSUNNY   88  65  46 N5        29.93S
WAKEFIELD      PTSUNNY   86  68  54 N3        29.94S
$$

VAZ020-022-025-037-045-022100-
WEST CENTRAL AND SOUTHWEST VIRGINIA

CITY           SKY/WX    TMP DP  RH WIND       PRES   REMARKS
STAUNTON*      PTSUNNY   84  54  34 S6        30.02F
WAYNESBORO*    FAIR      79  61  54 SW8       30.02S
HOT SPRINGS VA MOSUNNY   72  55  54 S5        30.12F
LYNCHBURG      PTSUNNY   81  58  45 VRB3      30.01F
DANVILLE       MOSUNNY   87  55  33 SE3       29.98F
SOUTH BOSTON*  FAIR      86  57  37 NW5       29.97S
MARTINSVILLE   MOSUNNY   87  52  29 N7        30.01F
ROANOKE        PTSUNNY   82  55  39 NE9       30.03F
BLACKSBURG     MOSUNNY   81  54  40 SE3       30.08F
DUBLIN*          N/A     81  54  38 NW3       30.08S
MARION*        FAIR      79  54  41 NW3       30.09F
HILLSVILLE*    MOSUNNY   78  56  46 S6        30.07F
RICHLANDS*     FAIR      77  56  46 CALM      30.08S
WISE*          SUNNY     82  48  30 E3        30.08F
ABINGDON*      MOSUNNY   84  44  24 CALM      30.04F
$$

MDZ021>025-VAZ099-100-022100-
SOUTHERN MARYLAND AND THE DELMARVA PENINSULA

CITY           SKY/WX    TMP DP  RH WIND       PRES   REMARKS
PATUXENT RIVER PTSUNNY   86  57  37 VRB5      29.93F
BAY BRIDGE APT   N/A     86  52  30 SW5       29.93F
LEONARDTOWN    PTSUNNY   82  57  42 CALM      29.96S
DOVER          SUNNY     88  60  39 W12       29.91S
GEORGETOWN     MOSUNNY   86  61  42 S3        29.93S
EASTON         MOSUNNY   88  59  37 W6        29.97F
CAMBRIDGE      MOSUNNY   86  55  35 NW7       29.93S
SALISBURY      PTSUNNY   85  65  51 SE6       29.92S
OCEAN CITY     CLOUDY    80  69  69 SE6       29.93S
WALLOPS ISLAND CLOUDY    83  66  56 E8        29.94S
ACCOMACK*      CLOUDY    82  63  51 E6        29.93F
$$

NCZ012>017-030>032-022100-
NORTH CENTRAL AND EASTERN NORTH CAROLINA

CITY           SKY/WX    TMP DP  RH WIND       PRES   REMARKS
ROANOKE RAPIDS FAIR      88  59  37 W8        29.94S
RALEIGH        MOSUNNY   89  58  34 NE8       29.95F
ELIZABETH CITY MOSUNNY   92  65  40 VRB3      29.90F
AHOSKIE*       SUNNY     88  63  44 N8        29.92F
EDENTON*         N/A     93  62  35 SW8       29.91F
CURRITUCK*     MOSUNNY   87  71  60 NE10      29.92S
KILL DEVIL HLS MOSUNNY   91  73  55 SE9       29.91F HX  99
MANTEO         PTSUNNY   84  73  70 S9G17     29.93S
CAPE HATTERAS  MOSUNNY   86  76  71 SW8       29.94F HX  96
TARBORO*         N/A     93  59  31 CALM      29.93S
GOLDSBORO      SUNNY     94  59  30 N2        29.90F
WASHINGTON     SUNNY     90  61  37 S5        29.92S
GREENVILLE     SUNNY     95  61  31 S6        29.93F HX  95
NEW BERN       PTSUNNY   88  72  58 S14G21    29.94R
WILMINGTON     PTSUNNY   85  73  67 SE10G18   29.94S
$$

VAZ048-022100-
ELSEWHERE

CITY           SKY/WX    TMP DP  RH WIND       PRES   REMARKS
HARRISBURG PA  PTSUNNY   86  57  37 SW10G16   29.90F
BALTIMORE      PTSUNNY   88  54  31 SW6       29.92F
ANNAPOLIS      MOSUNNY   83  59  44 SE12      29.92F
ANDREWS AFB    MOSUNNY   88  54  31 SW7       29.93F
PHILADELPHIA   PTSUNNY   89  53  29 SW12      29.92S
HENDERSON NC   SUNNY     86  51  30 N5        29.96F
GREENSBORO     MOSUNNY   88  52  29 NW7       29.97F
ROCKY MOUNT    SUNNY     94  56  27 VRB6      29.92F
$$

VAZ100-022100-
MARINE

STATION/POSITION TIME  TEMP    WIND        PRES    WAVE   SWELL
                       AIR SEA DIR/SP/G            HT/PER HT/PER
                 (UTC) (F)     (DEG/KT/KT) (MB)    (FT/S) (FT/S)
BRANDYWINE LGT   1900   81 76   CALM  /  1 1013.6F
CAPE MAY NJ      1900   81 76  260/  5/  6 1013.2F
LEWES DE         1900   80 74   50/  4/  4 1013.4F
15NM E FENWICK I 1950   80 81   CALM  /  2 1013.9S   2/ 7   2/ 7
OCEAN-CITY-INLET 1900   80 74  120/  5/  7 1012.9F
WACHAPREAGUE VA  1900   81 86   70/  7/ 10 1013.9F
GOOSES REEF MD   2000   85 86   CALM  /  2 1014.7F
COVE POINT MD    1900   81      20/  4/  6 1014.5F
SOLOMONS ISLAND  1900      84                N/A
BISHOPS HEAD MD  1900   83 85  270/  7/  9 1012.7F
PINEY POINT MD   1900          300/  4/  5   N/A
POTOMAC MD       2000   85 84  140/  2/  4 1012.6S   0
CAMBRIDGE MD     1900   84 85  330/  8/ 10 1012.7F
LEWISETTA VA     1900   84 84   90/  1/  2 1013.4F
RAPPAHANNOCK LGT 1900          350/  8/  9 1014.3F
STINGRAY PT      2000   83 84   20/  6/  8 1013.7F   1/ 2
YORK RVR RNG VA  1900   83      40/  8/ 10 1013.2F
YORKTOWN VA      1900   83 84   40/  9/ 10 1013.5F
JAMESTOWN VA     2000   84 87   30/  2/  4   N/A
DOMINION TERM VA 1900   84      20/  8/ 10 1013.5S
KIPTOPEKE VA     1900      81  100/  7/  9   N/A
CHES BAY BRIDGE  1900   80 81   50/  7/  8 1013.3R
CAPE HENRY VA    1900   79      40/ 10/ 12   N/A
CHESAPEAKE LGHT  1900   80      30/  8/  9 1014.2R
WILLOUBY STN VA  1900   82      30/ 11/ 12 1014.7S
CAPE HENRY BUOY  1928      81                N/A     2/13   2/13
1ST LANDING BUOY 2000      81              1013.2F   1/ 3
CAPE CHARLES BUO 1926      80                N/A     2/12   2/12
OFFSHORE WE BUOY 1911      85                N/A     2/12   2/12
64NM E OF VA BCH 1950   82 83  170/ 14/ 16 1013.0F   3/11   2/11
DUCK PIER NC     1900   84 81  130/ 10/ 12 1012.5F
44100 DUCK FRF   1924      83                N/A     2/11   2/11
44056 DUCK FRF   1911      81                N/A     2/11   2/11
OREGON INLET NC  1900   84 78  140/  9/ 14 1013.6F
HATTERAS NC      1900   86 82  170/  8/ 12 1013.9F
DIAMOND SHLS NC  1950   83 86  190/ 17/ 19 1013.9F   3/12   2/12



USA.gov is the U.S. government's official web portal to all federal, state and local government web resources and services.